FW3095 Weather Reports


Display with metric or nautical units.
time (UTC)temp
F
wind
direction
speed
MPH
gust
MPH
rain 1hr
in
rain 24hr
in
rain mn
in
humidity
%
barometer
mb
20260831014547 74 137 0.0 0.0 0.00 0.00 0.00 93 989.0
20260831013147 75 138 0.0 0.0 0.00 0.00 0.00 93 988.6
20260831011549 74 137 0.0 3.0 0.00 0.00 0.00 94 988.6
20260831004543 75 229 0.0 0.0 0.00 0.00 0.00 94 988.3
20260831003050 76 229 0.0 0.0 0.00 0.00 0.00 93 988.5
20260831001542 76 229 0.0 0.0 0.00 0.00 0.00 92 988.6
20260831000040 77 229 0.0 0.0 0.00 0.00 0.00 92 988.6
20260830234539 78 229 0.0 0.0 0.00 0.00 0.00 92 988.8
20260830233039 79 229 0.0 0.0 0.00 0.00 0.00 90 988.7
20260830231539 80 229 0.0 0.0 0.00 0.00 0.00 89 988.9
20260830230038 81 229 0.0 0.0 0.00 0.00 0.00 88 988.9
20260830224538 82 229 0.0 0.0 0.00 0.00 0.00 85 989.0
20260830223036 82 229 0.0 0.0 0.00 0.00 0.00 81 989.0
20260830221535 82 229 0.0 0.0 0.00 0.00 0.00 80 989.2
20260830220037 83 229 1.0 3.0 0.00 0.00 0.00 79 989.0
20260830214531 84 226 1.0 4.0 0.00 0.00 0.00 76 988.9
20260830213031 83 228 0.0 3.0 0.00 0.00 0.00 79 988.6
20260830211531 83 264 2.0 5.0 0.00 0.00 0.00 76 988.8
20260830210030 82 204 1.0 6.0 0.00 0.00 0.00 77 988.8
20260830204534 82 161 2.0 6.0 0.00 0.00 0.00 74 988.6
20260830203029 83 240 2.0 7.0 0.00 0.00 0.00 73 988.7
20260830201526 84 221 1.0 7.0 0.00 0.00 0.00 71 988.9
20260830200023 84 224 3.0 8.0 0.00 0.00 0.00 69 989.2
20260830194523 83 203 2.0 8.0 0.00 0.00 0.00 71 989.4
20260830193017 82 210 2.0 9.0 0.00 0.00 0.00 72 989.5
20260830191516 81 160 3.0 11.0 0.00 0.00 0.00 71 989.4
20260830190012 79 203 2.0 9.0 0.00 0.00 0.00 79 989.4
20260830184508 78 170 3.0 8.0 0.00 0.00 0.00 80 989.4
20260830183006 77 143 5.0 11.0 0.00 0.00 0.00 84 989.2
20260830181505 76 150 5.0 12.0 0.00 0.00 0.00 86 989.3
20260830180003 76 140 7.0 12.0 0.00 0.00 0.00 83 989.7
20260830174505 76 110 4.0 10.0 0.00 0.00 0.00 82 990.1
20260830173001 77 142 3.0 7.0 0.00 0.00 0.00 83 990.4
20260830171502 77 121 3.0 5.0 0.00 0.00 0.00 83 990.9
20260830170101 77 103 1.0 2.0 0.00 0.00 0.00 83 991.4
20260830164604 77 130 1.0 4.0 0.00 0.00 0.00 82 991.6
20260830163101 77 150 0.0 2.0 0.00 0.00 0.00 81 991.8
20260830161610 77 148 0.0 1.0 0.00 0.00 0.00 82 991.9
20260830160057 77 148 0.0 2.0 0.00 0.00 0.00 81 992.0
20260830154555 77 148 0.0 0.0 0.00 0.00 0.00 81 991.8
20260830153052 76 145 0.0 2.0 0.00 0.00 0.00 81 991.7
20260830151552 75 136 0.0 2.0 0.00 0.00 0.00 84 991.6
20260830150043 74 229 0.0 0.0 0.00 0.00 0.00 86 991.5
20260830144539 73 229 0.0 0.0 0.00 0.00 0.00 87 991.3
20260830143036 72 229 0.0 0.0 0.00 0.00 0.00 87 991.2
20260830141533 72 229 0.0 2.0 0.00 0.00 0.00 86 990.9
20260830140032 72 229 0.0 1.0 0.00 0.00 0.00 86 990.8
20260830134530 72 219 0.0 3.0 0.00 0.00 0.00 85 990.5
20260830133029 72 151 0.0 4.0 0.00 0.00 0.00 85 990.4
20260830131528 72 194 0.0 3.0 0.00 0.00 0.00 85 990.1
20260830130027 72 195 0.0 5.0 0.00 0.00 0.00 85 990.1
20260830124535 71 154 3.0 7.0 0.00 0.00 0.00 85 990.0
20260830123022 70 160 1.0 5.0 0.00 0.00 0.00 88 990.1
20260830121518 69 144 2.0 4.0 0.00 0.00 0.00 89 990.0
20260830120016 0 0.0 0.0 0.00 0.00 0.00 989.6
20260830114510 0 0.0 0.0 0.00 0.00 0.00 989.7
20260830113006 0 0.0 0.0 0.00 0.00 0.00 989.6
20260830111502 0 0.0 0.0 0.00 0.00 0.00 989.6
20260830110059 0 0.0 0.0 0.00 0.00 0.00 989.7
20260830104601 0 154 3.0 5.0 0.00 0.00 0.00 989.8
20260830103051 67 150 0.0 0.0 0.00 0.00 0.00 91 990.0
20260830101559 67 148 0.0 0.0 0.00 0.00 0.00 90 990.1
20260830100052 67 148 0.0 0.0 0.00 0.00 0.00 90 990.2
20260830094555 67 148 0.0 3.0 0.00 0.00 0.00 90 990.1
20260830093052 66 146 1.0 4.0 0.00 0.00 0.00 90 989.9
20260830091548 66 157 1.0 3.0 0.00 0.00 0.00 90 989.9
20260830090051 66 143 2.0 4.0 0.00 0.00 0.00 90 989.7
20260830084546 66 144 2.0 4.0 0.00 0.00 0.00 89 989.6
20260830083050 67 150 2.0 5.0 0.00 0.00 0.00 89 989.6
20260830081545 67 154 3.0 7.0 0.00 0.00 0.00 89 989.6
20260830080047 66 144 3.0 6.0 0.00 0.00 0.00 89 989.6
20260830074542 66 146 2.0 4.0 0.00 0.00 0.00 90 989.7
20260830073045 66 143 3.0 5.0 0.00 0.00 0.00 90 989.8
20260830071555 66 143 2.0 4.0 0.00 0.00 0.00 90 989.9
20260830070035 66 148 2.0 4.0 0.00 0.00 0.00 90 990.1
20260830064533 65 146 1.0 4.0 0.00 0.00 0.00 92 990.0
20260830063031 65 144 1.0 3.0 0.00 0.00 0.00 93 990.1
20260830061529 64 122 1.0 1.0 0.00 0.00 0.00 95 990.3
20260830060027 64 121 0.0 1.0 0.00 0.00 0.00 94 990.5
20260830054535 64 121 0.0 0.0 0.00 0.00 0.00 94 990.7
20260830053025 64 121 0.0 1.0 0.00 0.00 0.00 95 990.6
20260830051525 63 121 0.0 0.0 0.00 0.00 0.00 95 990.7
20260830050033 63 121 0.0 0.0 0.00 0.00 0.00 95 990.6
20260830044528 63 121 0.0 0.0 0.00 0.00 0.00 95 990.7
20260830043022 63 121 0.0 0.0 0.00 0.00 0.00 95 990.6
20260830041540 63 121 0.0 0.0 0.00 0.00 0.00 94 990.5
20260830040018 64 121 0.0 0.0 0.00 0.00 0.00 94 990.6
20260830034515 64 121 0.0 0.0 0.00 0.00 0.00 96 990.3
20260830033015 63 121 0.0 0.0 0.00 0.00 0.00 95 990.3
20260830031514 64 121 0.0 0.0 0.00 0.00 0.00 95 990.6
20260830030015 64 121 0.0 0.0 0.00 0.00 0.00 95 990.5
20260830024512 65 121 0.0 0.0 0.00 0.00 0.00 93 990.5
20260830023012 65 121 0.0 0.0 0.00 0.00 0.00 94 990.7
20260830021535 65 121 0.0 0.0 0.00 0.00 0.00 94 990.7
20260830020011 66 121 0.0 1.0 0.00 0.00 0.00 92 990.5